| time (UTC) | temp F | wind direction | speed knots | gust knots | rain 1hr in | rain 24hr in | rain mn in | humidity % | barometer mb |
| 20260510123015 | 48 | 229 | 0.0 | 0.0 | 0.00 | 0.00 | 0.00 | 24 | 1004.8 |
| 20260510121515 | 48 | 229 | 0.0 | 0.0 | 0.00 | 0.00 | 0.00 | 23 | 1004.9 |
| 20260510120014 | 48 | 229 | 0.0 | 0.0 | 0.00 | 0.00 | 0.00 | 23 | 1004.4 |
| 20260510114514 | 48 | 229 | 0.0 | 0.0 | 0.00 | 0.00 | 0.00 | 22 | 1004.5 |
| 20260510113019 | 47 | 229 | 0.0 | 0.0 | 0.00 | 0.00 | 0.00 | 22 | 1004.5 |
| 20260510111512 | 47 | 229 | 0.0 | 0.0 | 0.00 | 0.00 | 0.00 | 22 | 1004.4 |
| 20260510110011 | 47 | 229 | 0.0 | 0.0 | 0.00 | 0.00 | 0.00 | 22 | 1004.5 |
| 20260510104512 | 47 | 229 | 0.0 | 0.0 | 0.00 | 0.00 | 0.00 | 22 | 1004.5 |
| 20260510103010 | 47 | 229 | 0.0 | 0.0 | 0.00 | 0.00 | 0.00 | 22 | 1004.3 |
| 20260510101509 | 47 | 229 | 0.0 | 0.0 | 0.00 | 0.00 | 0.00 | 24 | 1004.1 |
| 20260510100008 | 47 | 229 | 0.0 | 0.0 | 0.00 | 0.00 | 0.00 | 23 | 1004.1 |
| 20260510094507 | 48 | 229 | 0.0 | 0.0 | 0.00 | 0.00 | 0.00 | 24 | 1004.2 |
| 20260510093008 | 48 | 229 | 0.0 | 0.0 | 0.00 | 0.00 | 0.00 | 25 | 1004.2 |
| 20260510091505 | 48 | 229 | 0.0 | 0.0 | 0.00 | 0.00 | 0.00 | 24 | 1004.2 |
| 20260510090005 | 48 | 229 | 0.0 | 0.0 | 0.00 | 0.00 | 0.00 | 24 | 1004.2 |
| 20260510084507 | 48 | 229 | 0.0 | 0.0 | 0.00 | 0.00 | 0.00 | 25 | 1004.2 |
| 20260510083003 | 48 | 229 | 0.0 | 0.0 | 0.00 | 0.00 | 0.00 | 26 | 1004.2 |
| 20260510081502 | 48 | 229 | 0.0 | 0.0 | 0.00 | 0.00 | 0.00 | 27 | 1003.9 |
| 20260510080117 | 48 | 229 | 0.0 | 0.0 | 0.00 | 0.00 | 0.00 | 27 | 1003.9 |
| 20260510074618 | 48 | 229 | 0.0 | 0.0 | 0.00 | 0.00 | 0.00 | 27 | 1004.0 |
| 20260510073051 | 48 | 229 | 0.0 | 0.0 | 0.00 | 0.00 | 0.00 | 26 | 1004.0 |
| 20260510071556 | 48 | 229 | 0.0 | 0.0 | 0.00 | 0.00 | 0.00 | 27 | 1004.1 |
| 20260510070043 | 49 | 229 | 0.0 | 0.0 | 0.00 | 0.00 | 0.00 | 25 | 1004.6 |
| 20260510064552 | 49 | 229 | 0.0 | 0.0 | 0.00 | 0.00 | 0.00 | 20 | 1004.6 |
| 20260510063034 | 49 | 229 | 0.0 | 0.0 | 0.00 | 0.00 | 0.00 | 19 | 1004.7 |
| 20260510061529 | 49 | 229 | 0.0 | 0.0 | 0.00 | 0.00 | 0.00 | 16 | 1004.7 |
| 20260510060030 | 50 | 229 | 0.0 | 0.0 | 0.00 | 0.00 | 0.00 | 16 | 1005.1 |
| 20260510054525 | 50 | 229 | 0.0 | 0.0 | 0.00 | 0.00 | 0.00 | 17 | 1004.7 |
| 20260510053016 | 51 | 229 | 0.0 | 0.0 | 0.00 | 0.00 | 0.00 | 16 | 1004.7 |
| 20260510051516 | 51 | 229 | 0.0 | 0.0 | 0.00 | 0.00 | 0.00 | 16 | 1004.7 |
| 20260510050008 | 52 | 229 | 0.0 | 0.0 | 0.00 | 0.00 | 0.00 | 16 | 1004.6 |
| 20260510044503 | 53 | 229 | 0.0 | 0.0 | 0.00 | 0.00 | 0.00 | 16 | 1004.6 |
| 20260510043105 | 54 | 229 | 0.0 | 0.0 | 0.00 | 0.00 | 0.00 | 15 | 1004.6 |
| 20260510041609 | 54 | 229 | 0.0 | 0.0 | 0.00 | 0.00 | 0.00 | 15 | 1003.9 |
| 20260510040051 | 55 | 229 | 0.0 | 0.0 | 0.00 | 0.00 | 0.00 | 14 | 1004.1 |
| 20260510034547 | 57 | 229 | 0.0 | 0.0 | 0.00 | 0.00 | 0.00 | 15 | 1003.6 |
| 20260510033041 | 58 | 229 | 0.0 | 0.0 | 0.00 | 0.00 | 0.00 | 14 | 1003.5 |
| 20260510031537 | 59 | 229 | 0.0 | 0.0 | 0.00 | 0.00 | 0.00 | 14 | 1003.4 |
| 20260510030033 | 60 | 229 | 0.0 | 0.0 | 0.00 | 0.00 | 0.00 | 14 | 1004.7 |
| 20260510024528 | 61 | 229 | 0.0 | 0.0 | 0.00 | 0.00 | 0.00 | 15 | 1003.8 |
| 20260510023024 | 62 | 229 | 0.0 | 0.0 | 0.00 | 0.00 | 0.00 | 15 | 1003.9 |
| 20260510021520 | 63 | 229 | 0.0 | 0.0 | 0.00 | 0.00 | 0.00 | 16 | 1003.8 |
| 20260510020016 | 64 | 229 | 0.0 | 0.0 | 0.00 | 0.00 | 0.00 | 18 | 1005.0 |
| 20260510014520 | 65 | 193 | 0.0 | 0.0 | 0.00 | 0.00 | 0.00 | 17 | 1005.1 |
| 20260510013006 | 66 | 193 | 0.0 | 0.0 | 0.00 | 0.00 | 0.00 | 17 | 1005.1 |
| 20260510011503 | 67 | 193 | 0.9 | 0.0 | 0.00 | 0.00 | 0.00 | 18 | 1004.5 |
| 20260510010112 | 70 | 128 | 0.9 | 0.0 | 0.00 | 0.00 | 0.00 | 17 | 1004.1 |
| 20260510004600 | 70 | 186 | 0.9 | 0.0 | 0.00 | 0.00 | 0.00 | 17 | 1004.0 |
| 20260510003050 | 70 | 232 | 1.7 | 0.0 | 0.00 | 0.00 | 0.00 | 15 | 1004.0 |
| 20260510001545 | 72 | 198 | 0.9 | 0.0 | 0.00 | 0.00 | 0.00 | 15 | 1003.5 |
| 20260510000044 | 73 | 209 | 0.9 | 0.0 | 0.00 | 0.00 | 0.00 | 18 | 1003.4 |
| 20260509234556 | 71 | 155 | 1.7 | 0.0 | 0.00 | 0.00 | 0.00 | 17 | 1004.1 |
| 20260509233033 | 70 | 205 | 2.6 | 0.0 | 0.00 | 0.00 | 0.00 | 17 | 1004.2 |
| 20260509231532 | 72 | 199 | 1.7 | 0.0 | 0.00 | 0.00 | 0.00 | 17 | 1003.6 |
| 20260509230027 | 72 | 198 | 1.7 | 0.0 | 0.00 | 0.00 | 0.00 | 13 | 1003.9 |
| 20260509224519 | 73 | 120 | 1.7 | 0.0 | 0.00 | 0.00 | 0.00 | 15 | 1004.0 |
| 20260509223016 | 73 | 155 | 0.9 | 0.0 | 0.00 | 0.00 | 0.00 | 10 | 1004.4 |
| 20260509221525 | 72 | 136 | 1.7 | 0.0 | 0.00 | 0.00 | 0.00 | 10 | 1004.4 |
| 20260509220007 | 71 | 200 | 1.7 | 0.0 | 0.00 | 0.00 | 0.00 | 9 | 1004.5 |
| 20260509214502 | 72 | 213 | 0.9 | 0.0 | 0.00 | 0.00 | 0.00 | 7 | 1004.7 |
| 20260509213058 | 73 | 113 | 0.9 | 0.0 | 0.00 | 0.00 | 0.00 | 6 | 1004.5 |
| 20260509211553 | 72 | 192 | 0.9 | 0.0 | 0.00 | 0.00 | 0.00 | 7 | 1005.1 |
| 20260509210057 | 73 | 131 | 0.9 | 0.0 | 0.00 | 0.00 | 0.00 | 7 | 1004.6 |
| 20260509204545 | 72 | 176 | 0.9 | 0.0 | 0.00 | 0.00 | 0.00 | 7 | 1004.7 |
| 20260509203045 | 73 | 127 | 1.7 | 0.0 | 0.00 | 0.00 | 0.00 | 5 | 1004.7 |
| 20260509201537 | 73 | 185 | 0.9 | 0.0 | 0.00 | 0.00 | 0.00 | 7 | 1004.7 |
| 20260509200037 | 73 | 144 | 0.9 | 0.0 | 0.00 | 0.00 | 0.00 | 11 | 1004.7 |
| 20260509194531 | 72 | 232 | 0.9 | 0.0 | 0.00 | 0.00 | 0.00 | 12 | 1004.7 |
| 20260509193029 | 71 | 158 | 0.9 | 0.0 | 0.00 | 0.00 | 0.00 | 10 | 1005.4 |
| 20260509191527 | 70 | 244 | 1.7 | 0.0 | 0.00 | 0.00 | 0.00 | 9 | 1005.6 |
| 20260509190040 | 70 | 230 | 1.7 | 0.0 | 0.00 | 0.00 | 0.00 | 10 | 1005.1 |
| 20260509184533 | 70 | 171 | 0.9 | 0.0 | 0.00 | 0.00 | 0.00 | 9 | 1005.1 |
| 20260509183028 | 69 | 210 | 0.9 | 0.0 | 0.00 | 0.00 | 0.00 | 9 | 1005.5 |
| 20260509181521 | 69 | 138 | 0.9 | 0.0 | 0.00 | 0.00 | 0.00 | 9 | 1005.5 |
| 20260509180019 | 68 | 130 | 0.9 | 0.0 | 0.00 | 0.00 | 0.00 | 10 | 1005.0 |
| 20260509174523 | 68 | 240 | 0.9 | 0.0 | 0.00 | 0.00 | 0.00 | 9 | 1005.4 |
| 20260509173016 | 67 | 240 | 0.9 | 0.0 | 0.00 | 0.00 | 0.00 | 9 | 1005.5 |
| 20260509171513 | 67 | 212 | 0.9 | 0.0 | 0.00 | 0.00 | 0.00 | 10 | 1005.3 |
| 20260509170023 | 66 | 128 | 0.0 | 0.0 | 0.00 | 0.00 | 0.00 | 11 | 1005.1 |
| 20260509164510 | 66 | 121 | 0.9 | 0.0 | 0.00 | 0.00 | 0.00 | 11 | 1005.1 |
| 20260509163007 | 66 | 165 | 0.0 | 0.0 | 0.00 | 0.00 | 0.00 | 12 | 1005.0 |
| 20260509161504 | 65 | 219 | 0.9 | 0.0 | 0.00 | 0.00 | 0.00 | 12 | 1005.4 |
| 20260509160100 | 64 | 185 | 0.0 | 0.0 | 0.00 | 0.00 | 0.00 | 13 | 1005.0 |
| 20260509154557 | 62 | 179 | 0.0 | 0.0 | 0.00 | 0.00 | 0.00 | 13 | 1005.4 |
| 20260509153054 | 61 | 141 | 0.0 | 0.0 | 0.00 | 0.00 | 0.00 | 15 | 1005.8 |
| 20260509151552 | 59 | 213 | 0.0 | 0.0 | 0.00 | 0.00 | 0.00 | 18 | 1006.4 |
| 20260509150045 | 56 | 213 | 0.0 | 0.0 | 0.00 | 0.00 | 0.00 | 21 | 1006.2 |
| 20260509144547 | 52 | 213 | 0.0 | 0.0 | 0.00 | 0.00 | 0.00 | 24 | 1006.7 |
| 20260509143037 | 49 | 213 | 0.0 | 0.0 | 0.00 | 0.00 | 0.00 | 27 | 1007.5 |
| 20260509141537 | 47 | 213 | 0.0 | 0.0 | 0.00 | 0.00 | 0.00 | 30 | 1007.3 |
| 20260509140036 | 47 | 213 | 0.0 | 0.0 | 0.00 | 0.00 | 0.00 | 29 | 1006.8 |
| 20260509134538 | 46 | 213 | 0.0 | 0.0 | 0.00 | 0.00 | 0.00 | 28 | 1006.8 |
| 20260509133034 | 46 | 213 | 0.0 | 0.0 | 0.00 | 0.00 | 0.00 | 25 | 1006.8 |
| 20260509131548 | 45 | 213 | 0.0 | 0.0 | 0.00 | 0.00 | 0.00 | 24 | 1006.7 |
| 20260509130042 | 45 | 213 | 0.0 | 0.0 | 0.00 | 0.00 | 0.00 | 23 | 1005.7 |
| 20260509124531 | 45 | 213 | 0.0 | 0.0 | 0.00 | 0.00 | 0.00 | 23 | 1005.6 |